TimeEDT,TemperatureF,Dew PointF,Humidity,Sea Level PressureIn,VisibilityMPH,Wind Direction,Wind SpeedMPH,Gust SpeedMPH,PrecipitationIn,Events,Conditions,WindDirDegrees,DateUTC
12:53 AM,66.9,64.0,90,30.05,10.0,NE,9.2,-,N/A,,Partly Cloudy,50,2013-04-23 04:53:00
1:34 AM,66.2,62.6,88,30.04,10.0,NE,10.4,-,N/A,,Mostly Cloudy,50,2013-04-23 05:34:00
1:53 AM,66.9,63.0,87,30.04,10.0,NE,11.5,17.3,N/A,,Overcast,50,2013-04-23 05:53:00
2:53 AM,66.9,63.0,87,30.02,10.0,ENE,10.4,-,N/A,,Overcast,60,2013-04-23 06:53:00
3:53 AM,66.9,63.0,87,30.01,10.0,NE,9.2,-,N/A,,Overcast,50,2013-04-23 07:53:00
4:53 AM,66.9,63.0,87,30.01,8.0,ENE,9.2,-,N/A,,Overcast,60,2013-04-23 08:53:00
5:01 AM,66.2,62.6,88,30.01,8.0,ENE,10.4,-,N/A,,Overcast,60,2013-04-23 09:01:00
6:53 AM,66.9,64.0,90,30.03,10.0,ENE,5.8,-,N/A,,Overcast,60,2013-04-23 10:53:00
7:53 AM,68.0,64.0,87,30.05,8.0,NE,10.4,-,N/A,,Overcast,50,2013-04-23 11:53:00
8:18 AM,68.0,64.4,88,30.06,9.0,ENE,9.2,-,N/A,,Overcast,60,2013-04-23 12:18:00
8:31 AM,69.8,64.4,83,30.06,10.0,ENE,10.4,-,N/A,,Mostly Cloudy,70,2013-04-23 12:31:00
8:53 AM,69.1,63.0,81,30.06,10.0,NNE,9.2,-,N/A,,Overcast,30,2013-04-23 12:53:00
9:53 AM,72.0,64.0,76,30.08,10.0,ENE,8.1,-,N/A,,Mostly Cloudy,60,2013-04-23 13:53:00
10:08 AM,73.4,64.4,73,30.09,10.0,ENE,10.4,-,N/A,,Scattered Clouds,60,2013-04-23 14:08:00
10:19 AM,75.2,64.4,69,30.09,10.0,NE,9.2,-,N/A,,Mostly Cloudy,50,2013-04-23 14:19:00
10:53 AM,75.9,64.0,67,30.10,10.0,ENE,11.5,18.4,N/A,,Mostly Cloudy,70,2013-04-23 14:53:00
11:39 AM,78.8,64.4,61,30.09,10.0,East,11.5,18.4,N/A,,Scattered Clouds,80,2013-04-23 15:39:00
11:53 AM,78.1,64.0,62,30.09,10.0,ENE,10.4,-,N/A,,Mostly Cloudy,60,2013-04-23 15:53:00
12:01 PM,78.8,64.4,61,30.09,10.0,ENE,11.5,-,N/A,,Mostly Cloudy,60,2013-04-23 16:01:00
12:11 PM,80.6,64.4,58,30.08,10.0,East,9.2,-,N/A,,Mostly Cloudy,80,2013-04-23 16:11:00
12:53 PM,80.1,63.0,56,30.07,10.0,East,10.4,-,N/A,,Mostly Cloudy,80,2013-04-23 16:53:00
1:53 PM,82.9,62.1,49,30.05,10.0,Variable,5.8,-,N/A,,Mostly Cloudy,0,2013-04-23 17:53:00
2:53 PM,84.0,62.1,47,30.04,10.0,ENE,10.4,-,N/A,,Partly Cloudy,60,2013-04-23 18:53:00
3:53 PM,84.9,60.1,43,30.02,10.0,ENE,9.2,-,N/A,,Partly Cloudy,60,2013-04-23 19:53:00
4:53 PM,84.9,60.1,43,30.00,10.0,East,13.8,21.9,N/A,,Clear,80,2013-04-23 20:53:00
5:53 PM,84.9,57.9,40,30.00,10.0,East,12.7,17.3,N/A,,Partly Cloudy,90,2013-04-23 21:53:00
6:53 PM,82.9,57.9,42,30.01,10.0,East,12.7,17.3,N/A,,Clear,80,2013-04-23 22:53:00
7:53 PM,79.0,59.0,50,30.02,10.0,ENE,9.2,-,N/A,,Clear,70,2013-04-23 23:53:00
8:53 PM,77.0,60.1,56,30.04,10.0,East,11.5,-,N/A,,Clear,80,2013-04-24 00:53:00
9:53 PM,75.0,60.1,60,30.06,10.0,East,16.1,23.0,N/A,,Clear,90,2013-04-24 01:53:00
10:53 PM,72.0,60.1,66,30.09,10.0,East,12.7,21.9,N/A,,Clear,90,2013-04-24 02:53:00
11:53 PM,70.0,60.1,71,30.09,10.0,East,9.2,-,N/A,,Clear,90,2013-04-24 03:53:00